TimePST,TemperatureF,Dew PointF,Humidity,Sea Level PressureIn,VisibilityMPH,Wind Direction,Wind SpeedMPH,Gust SpeedMPH,PrecipitationIn,Events,Conditions,WindDirDegrees,DateUTC
12:53 AM,36.0,32.0,86,30.10,10.0,Calm,Calm,-,N/A,,Clear,0,2012-11-27 08:53:00
1:53 AM,34.0,30.9,89,30.10,10.0,Calm,Calm,-,N/A,,Clear,0,2012-11-27 09:53:00
2:53 AM,32.0,30.9,96,30.09,10.0,Calm,Calm,-,N/A,,Clear,0,2012-11-27 10:53:00
3:53 AM,33.1,30.0,89,30.08,9.0,Calm,Calm,-,N/A,,Clear,0,2012-11-27 11:53:00
4:53 AM,32.0,30.0,92,30.08,10.0,Calm,Calm,-,N/A,,Clear,0,2012-11-27 12:53:00
5:53 AM,33.1,30.0,89,30.07,10.0,Calm,Calm,-,N/A,,Clear,0,2012-11-27 13:53:00
6:53 AM,32.0,30.0,92,30.07,10.0,Calm,Calm,-,N/A,,Clear,0,2012-11-27 14:53:00
7:53 AM,30.9,28.9,92,30.08,8.0,Calm,Calm,-,N/A,,Clear,0,2012-11-27 15:53:00
8:53 AM,35.1,32.0,89,30.09,9.0,Calm,Calm,-,N/A,,Clear,0,2012-11-27 16:53:00
9:53 AM,39.9,33.1,77,30.09,10.0,Calm,Calm,-,N/A,,Clear,0,2012-11-27 17:53:00
10:53 AM,42.1,33.1,70,30.07,10.0,Calm,Calm,-,N/A,,Clear,0,2012-11-27 18:53:00
11:53 AM,44.1,34.0,68,30.05,10.0,Calm,Calm,-,N/A,,Clear,0,2012-11-27 19:53:00
12:53 PM,46.0,35.1,66,30.03,10.0,Calm,Calm,-,N/A,,Clear,0,2012-11-27 20:53:00
1:53 PM,46.0,34.0,63,30.01,10.0,SE,6.9,-,N/A,,Clear,140,2012-11-27 21:53:00
2:53 PM,46.0,34.0,63,29.99,10.0,SE,5.8,-,N/A,,Clear,130,2012-11-27 22:53:00
3:53 PM,44.1,34.0,68,29.98,10.0,SE,5.8,-,N/A,,Clear,130,2012-11-27 23:53:00
4:53 PM,43.0,33.1,68,29.98,10.0,SSE,4.6,-,N/A,,Clear,150,2012-11-28 00:53:00
5:53 PM,43.0,32.0,65,29.96,10.0,SE,6.9,-,N/A,,Clear,130,2012-11-28 01:53:00
6:53 PM,43.0,30.9,62,29.95,10.0,ESE,4.6,-,N/A,,Clear,110,2012-11-28 02:53:00
7:53 PM,42.1,30.9,65,29.94,10.0,Calm,Calm,-,N/A,,Clear,0,2012-11-28 03:53:00
8:53 PM,42.1,32.0,67,29.93,10.0,Calm,Calm,-,N/A,,Clear,0,2012-11-28 04:53:00
9:53 PM,39.9,32.0,73,29.92,10.0,Calm,Calm,-,N/A,,Clear,0,2012-11-28 05:53:00
10:53 PM,37.0,33.1,86,29.91,10.0,Calm,Calm,-,N/A,,Clear,0,2012-11-28 06:53:00
11:53 PM,39.0,34.0,82,29.89,10.0,Calm,Calm,-,N/A,,Clear,0,2012-11-28 07:53:00